owner,sensor,date,latitude,longitude,vertical_datum,direction_of_sea_water_velocity,sea_water_speed,upward_sea_water_velocity,qcFlag 
TABS,ioos:station:TABS:M:1,1999-03-02T00:00:00Z,28.1921,-94.1914,2.0,21.53041318,23.54271862,-99999.0,'11111222,11111222,99999999' 
TABS,ioos:station:TABS:M:1,1999-03-02T00:30:00Z,28.1921,-94.1914,2.0,32.41796605,22.23509163,-99999.0,'11111222,11111222,99999999' 
TABS,ioos:station:TABS:M:1,1999-03-02T01:00:00Z,28.1921,-94.1914,2.0,27.95582435,21.9288691,-99999.0,'11111222,11111222,99999999' 
TABS,ioos:station:TABS:M:1,1999-03-02T01:30:00Z,28.1921,-94.1914,2.0,22.94416143,22.16343159,-99999.0,'11111222,11111222,99999999' 
TABS,ioos:station:TABS:M:1,1999-03-02T02:00:00Z,28.1921,-94.1914,2.0,17.2245945,22.15353696,-99999.0,'11111222,11111222,99999999' 
TABS,ioos:station:TABS:M:1,1999-03-02T02:30:00Z,28.1921,-94.1914,2.0,16.9343372,21.49188684,-99999.0,'11111222,11111222,99999999' 
TABS,ioos:station:TABS:M:1,1999-03-02T03:00:00Z,28.1921,-94.1914,2.0,12.20239245,26.06895663,-99999.0,'11111222,11111222,99999999' 
TABS,ioos:station:TABS:M:1,1999-03-02T03:30:00Z,28.1921,-94.1914,2.0,15.47384491,27.36177809,-99999.0,'11111222,11111222,99999999' 
TABS,ioos:station:TABS:M:1,1999-03-02T04:00:00Z,28.1921,-94.1914,2.0,9.468809533,29.90746395,-99999.0,'11111222,11111222,99999999' 
TABS,ioos:station:TABS:M:1,1999-03-02T04:30:00Z,28.1921,-94.1914,2.0,10.09718575,30.57351141,-99999.0,'11111222,11111222,99999999' 
TABS,ioos:station:TABS:M:1,1999-03-02T05:00:00Z,28.1921,-94.1914,2.0,7.187352904,29.73362406,-99999.0,'11111222,11111222,99999999' 
TABS,ioos:station:TABS:M:1,1999-03-02T05:30:00Z,28.1921,-94.1914,2.0,10.04928977,29.05575674,-99999.0,'11111222,11111222,99999999' 
TABS,ioos:station:TABS:M:1,1999-03-02T06:00:00Z,28.1921,-94.1914,2.0,11.98082051,30.15688313,-99999.0,'11111222,11111222,99999999' 
TABS,ioos:station:TABS:M:1,1999-03-02T06:30:00Z,28.1921,-94.1914,2.0,16.15384799,29.47365094,-99999.0,'11111222,11111222,99999999' 
TABS,ioos:station:TABS:M:1,1999-03-02T07:00:00Z,28.1921,-94.1914,2.0,12.32861634,27.91369735,-99999.0,'11111222,11111222,99999999' 
TABS,ioos:station:TABS:M:1,1999-03-02T07:30:00Z,28.1921,-94.1914,2.0,19.84978667,26.7705155,-99999.0,'11111222,11111222,99999999' 
TABS,ioos:station:TABS:M:1,1999-03-02T08:00:00Z,28.1921,-94.1914,2.0,26.42110514,28.45181892,-99999.0,'11111222,11111222,99999999' 
TABS,ioos:station:TABS:M:1,1999-03-02T08:30:00Z,28.1921,-94.1914,2.0,37.12406406,26.16225717,-99999.0,'11111222,11111222,99999999' 
TABS,ioos:station:TABS:M:1,1999-03-02T09:00:00Z,28.1921,-94.1914,2.0,36.47562755,25.56860575,-99999.0,'11111222,11111222,99999999' 
TABS,ioos:station:TABS:M:1,1999-03-02T09:30:00Z,28.1921,-94.1914,2.0,38.50897911,26.08267049,-99999.0,'11111222,11111222,99999999' 
TABS,ioos:station:TABS:M:1,1999-03-02T10:00:00Z,28.1921,-94.1914,2.0,36.73792559,23.42206225,-99999.0,'11111222,11111222,99999999' 
TABS,ioos:station:TABS:M:1,1999-03-02T10:30:00Z,28.1921,-94.1914,2.0,35.22786975,21.70491419,-99999.0,'11111222,11111222,99999999' 
TABS,ioos:station:TABS:M:1,1999-03-02T11:00:00Z,28.1921,-94.1914,2.0,45.89527685,19.91455749,-99999.0,'11111222,11111222,99999999' 
TABS,ioos:station:TABS:M:1,1999-03-02T11:30:00Z,28.1921,-94.1914,2.0,49.25429285,18.49229569,-99999.0,'11111222,11111222,99999999' 
TABS,ioos:station:TABS:M:1,1999-03-02T12:00:00Z,28.1921,-94.1914,2.0,52.52659911,16.89693759,-99999.0,'11111222,11111222,99999999' 
TABS,ioos:station:TABS:M:1,1999-03-02T12:30:00Z,28.1921,-94.1914,2.0,53.36760011,14.48012431,-99999.0,'11111222,11111222,99999999' 
TABS,ioos:station:TABS:M:1,1999-03-02T13:00:00Z,28.1921,-94.1914,2.0,53.40159682,12.24413737,-99999.0,'11111222,11111222,99999999' 
TABS,ioos:station:TABS:M:1,1999-03-02T13:30:00Z,28.1921,-94.1914,2.0,42.8253662,11.18033989,-99999.0,'11111222,11111222,99999999' 
TABS,ioos:station:TABS:M:1,1999-03-02T14:00:00Z,28.1921,-94.1914,2.0,114.5048829,9.330434074,-99999.0,'11133222,11111222,99999999' 
TABS,ioos:station:TABS:M:1,1999-03-02T14:30:00Z,28.1921,-94.1914,2.0,33.54529398,16.44968693,-99999.0,'11111222,11111222,99999999' 
TABS,ioos:station:TABS:M:1,1999-03-02T15:00:00Z,28.1921,-94.1914,2.0,20.0604001,8.250539376,-99999.0,'11133222,11111222,99999999' 
TABS,ioos:station:TABS:M:1,1999-03-02T15:30:00Z,28.1921,-94.1914,2.0,8.033627342,11.73516084,-99999.0,'11111222,11111222,99999999' 
TABS,ioos:station:TABS:M:1,1999-03-02T16:00:00Z,28.1921,-94.1914,2.0,357.693218,11.17906078,-99999.0,'11111222,11111222,99999999' 
TABS,ioos:station:TABS:M:1,1999-03-02T16:30:00Z,28.1921,-94.1914,2.0,2.760209006,15.36782678,-99999.0,'11111222,11111222,99999999' 
TABS,ioos:station:TABS:M:1,1999-03-02T17:00:00Z,28.1921,-94.1914,2.0,343.5731778,9.476840191,-99999.0,'11133222,11111222,99999999' 
TABS,ioos:station:TABS:M:1,1999-03-02T17:30:00Z,28.1921,-94.1914,2.0,357.1505979,17.90213674,-99999.0,'11111222,11111222,99999999' 
TABS,ioos:station:TABS:M:1,1999-03-02T18:00:00Z,28.1921,-94.1914,2.0,9.381132441,17.36219456,-99999.0,'11111222,11111222,99999999' 
TABS,ioos:station:TABS:M:1,1999-03-02T18:30:00Z,28.1921,-94.1914,2.0,21.37382398,22.88387423,-99999.0,'11111222,11111222,99999999' 
TABS,ioos:station:TABS:M:1,1999-03-02T19:00:00Z,28.1921,-94.1914,2.0,21.12545623,21.08717383,-99999.0,'11111222,11111222,99999999' 
TABS,ioos:station:TABS:M:1,1999-03-02T19:30:00Z,28.1921,-94.1914,2.0,20.10615213,19.5195543,-99999.0,'11111222,11111222,99999999' 
TABS,ioos:station:TABS:M:1,1999-03-02T20:00:00Z,28.1921,-94.1914,2.0,13.12812391,18.35982843,-99999.0,'11111222,11111222,99999999' 
TABS,ioos:station:TABS:M:1,1999-03-02T20:30:00Z,28.1921,-94.1914,2.0,28.39171439,18.80146803,-99999.0,'11111222,11111222,99999999' 
TABS,ioos:station:TABS:M:1,1999-03-02T21:00:00Z,28.1921,-94.1914,2.0,25.51887373,21.79635291,-99999.0,'11111222,11111222,99999999' 
TABS,ioos:station:TABS:M:1,1999-03-02T21:30:00Z,28.1921,-94.1914,2.0,22.58487181,16.30000307,-99999.0,'11111222,11111222,99999999' 
TABS,ioos:station:TABS:M:1,1999-03-02T22:00:00Z,28.1921,-94.1914,2.0,27.09569959,21.25250103,-99999.0,'11111222,11111222,99999999' 
TABS,ioos:station:TABS:M:1,1999-03-02T22:30:00Z,28.1921,-94.1914,2.0,83.78539612,5.542571605,-99999.0,'11133222,11111222,99999999' 
TABS,ioos:station:TABS:M:1,1999-03-02T23:00:00Z,28.1921,-94.1914,2.0,29.58435269,19.01956098,-99999.0,'11111222,11111222,99999999' 
TABS,ioos:station:TABS:M:1,1999-03-02T23:30:00Z,28.1921,-94.1914,2.0,37.57348014,29.32221001,-99999.0,'11111222,11111222,99999999' 
TABS,ioos:station:TABS:M:1,1999-03-03T00:00:00Z,28.1921,-94.1914,2.0,43.33657057,18.02467753,-99999.0,'11111222,11111222,99999999' 
TABS,ioos:station:TABS:M:1,1999-03-03T00:30:00Z,28.1921,-94.1914,2.0,43.14037465,19.39201124,-99999.0,'11111222,11111222,99999999' 
TABS,ioos:station:TABS:M:1,1999-03-03T01:00:00Z,28.1921,-94.1914,2.0,40.38128986,22.30386962,-99999.0,'11111222,11111222,99999999' 
TABS,ioos:station:TABS:M:1,1999-03-03T01:30:00Z,28.1921,-94.1914,2.0,47.83496189,21.30291295,-99999.0,'11111222,11111222,99999999' 
TABS,ioos:station:TABS:M:1,1999-03-03T02:00:00Z,28.1921,-94.1914,2.0,46.64512337,21.92227406,-99999.0,'11111222,11111222,99999999' 
TABS,ioos:station:TABS:M:1,1999-03-03T02:30:00Z,28.1921,-94.1914,2.0,53.12449148,20.1140001,-99999.0,'11111222,11111222,99999999' 
TABS,ioos:station:TABS:M:1,1999-03-03T03:00:00Z,28.1921,-94.1914,2.0,53.5425407,20.56453257,-99999.0,'11111222,11111222,99999999' 
TABS,ioos:station:TABS:M:1,1999-03-03T03:30:00Z,28.1921,-94.1914,2.0,66.4994513,22.41957181,-99999.0,'11111222,11111222,99999999' 
TABS,ioos:station:TABS:M:1,1999-03-03T04:00:00Z,28.1921,-94.1914,2.0,76.51399445,22.98373555,-99999.0,'11111222,11111222,99999999' 
TABS,ioos:station:TABS:M:1,1999-03-03T04:30:00Z,28.1921,-94.1914,2.0,84.69309944,22.5968604,-99999.0,'11111222,11111222,99999999' 
TABS,ioos:station:TABS:M:1,1999-03-03T05:00:00Z,28.1921,-94.1914,2.0,90.0,23.54,-99999.0,'11111222,11111222,99999999' 
TABS,ioos:station:TABS:M:1,1999-03-03T05:30:00Z,28.1921,-94.1914,2.0,100.040623,21.33678748,-99999.0,'11111222,11111222,99999999' 
TABS,ioos:station:TABS:M:1,1999-03-03T06:00:00Z,28.1921,-94.1914,2.0,105.1430213,18.83397993,-99999.0,'11111222,11111222,99999999' 
TABS,ioos:station:TABS:M:1,1999-03-03T06:30:00Z,28.1921,-94.1914,2.0,101.9259645,16.59826798,-99999.0,'11111222,11111222,99999999' 
TABS,ioos:station:TABS:M:1,1999-03-03T07:00:00Z,28.1921,-94.1914,2.0,98.01632642,10.68440452,-99999.0,'11111222,11111222,99999999' 
TABS,ioos:station:TABS:M:1,1999-03-03T07:30:00Z,28.1921,-94.1914,2.0,107.4227205,13.42596365,-99999.0,'11111222,11111222,99999999' 
TABS,ioos:station:TABS:M:1,1999-03-03T08:00:00Z,28.1921,-94.1914,2.0,124.1909453,14.59194641,-99999.0,'11111222,11111222,99999999' 
TABS,ioos:station:TABS:M:1,1999-03-03T08:30:00Z,28.1921,-94.1914,2.0,133.8910852,10.96220781,-99999.0,'11111222,11111222,99999999' 
TABS,ioos:station:TABS:M:1,1999-03-03T09:00:00Z,28.1921,-94.1914,2.0,134.0847067,13.28115959,-99999.0,'11111222,11111222,99999999' 
TABS,ioos:station:TABS:M:1,1999-03-03T09:30:00Z,28.1921,-94.1914,2.0,148.6605622,12.03602925,-99999.0,'11111222,11111222,99999999' 
TABS,ioos:station:TABS:M:1,1999-03-03T10:00:00Z,28.1921,-94.1914,2.0,127.2373479,14.03028866,-99999.0,'11111222,11111222,99999999' 
TABS,ioos:station:TABS:M:1,1999-03-03T10:30:00Z,28.1921,-94.1914,2.0,166.1159606,15.50293198,-99999.0,'11111222,11111222,99999999' 
TABS,ioos:station:TABS:M:1,1999-03-03T11:00:00Z,28.1921,-94.1914,2.0,185.1279686,13.31329035,-99999.0,'11111222,11111222,99999999' 
TABS,ioos:station:TABS:M:1,1999-03-03T11:30:00Z,28.1921,-94.1914,2.0,169.0770104,13.35189125,-99999.0,'11111222,11111222,99999999' 
TABS,ioos:station:TABS:M:1,1999-03-03T12:00:00Z,28.1921,-94.1914,2.0,211.0726081,15.30627649,-99999.0,'11111222,11111222,99999999' 
TABS,ioos:station:TABS:M:1,1999-03-03T12:30:00Z,28.1921,-94.1914,2.0,206.9417182,10.19669064,-99999.0,'11111222,11111222,99999999' 
TABS,ioos:station:TABS:M:1,1999-03-03T13:00:00Z,28.1921,-94.1914,2.0,212.3493883,7.232496111,-99999.0,'11133222,11111222,99999999' 
TABS,ioos:station:TABS:M:1,1999-03-03T13:30:00Z,28.1921,-94.1914,2.0,51.32687339,6.673305028,-99999.0,'11133222,11111222,99999999' 
TABS,ioos:station:TABS:M:1,1999-03-03T14:00:00Z,28.1921,-94.1914,2.0,258.9912985,16.39161371,-99999.0,'11111222,11111222,99999999' 
TABS,ioos:station:TABS:M:1,1999-03-03T14:30:00Z,28.1921,-94.1914,2.0,255.3274336,9.396408889,-99999.0,'11133222,11111222,99999999' 
TABS,ioos:station:TABS:M:1,1999-03-03T15:00:00Z,28.1921,-94.1914,2.0,323.8115569,7.570534988,-99999.0,'11133222,11111222,99999999' 
TABS,ioos:station:TABS:M:1,1999-03-03T15:30:00Z,28.1921,-94.1914,2.0,331.2473965,8.668846521,-99999.0,'11133222,11111222,99999999' 
TABS,ioos:station:TABS:M:1,1999-03-03T16:00:00Z,28.1921,-94.1914,2.0,349.773062,9.236758089,-99999.0,'11133222,11111222,99999999' 
TABS,ioos:station:TABS:M:1,1999-03-03T16:30:00Z,28.1921,-94.1914,2.0,335.3571729,10.00084996,-99999.0,'11111222,11111222,99999999' 
TABS,ioos:station:TABS:M:1,1999-03-03T17:00:00Z,28.1921,-94.1914,2.0,334.0458091,12.5897776,-99999.0,'11111222,11111222,99999999' 
TABS,ioos:station:TABS:M:1,1999-03-03T17:30:00Z,28.1921,-94.1914,2.0,294.1277712,10.9353235,-99999.0,'11111222,11111222,99999999' 
TABS,ioos:station:TABS:M:1,1999-03-03T18:00:00Z,28.1921,-94.1914,2.0,305.6880659,8.433795113,-99999.0,'11133222,11111222,99999999' 
TABS,ioos:station:TABS:M:1,1999-03-03T18:30:00Z,28.1921,-94.1914,2.0,312.3913582,11.49532949,-99999.0,'11111222,11111222,99999999' 
TABS,ioos:station:TABS:M:1,1999-03-03T19:00:00Z,28.1921,-94.1914,2.0,359.3733685,13.71082054,-99999.0,'11111222,11144222,99999999' 
TABS,ioos:station:TABS:M:1,1999-03-03T19:30:00Z,28.1921,-94.1914,2.0,344.764837,5.099215626,-99999.0,'11133222,11111222,99999999' 
TABS,ioos:station:TABS:M:1,1999-03-03T20:00:00Z,28.1921,-94.1914,2.0,11.42640207,13.52811886,-99999.0,'11111222,11111222,99999999' 
TABS,ioos:station:TABS:M:1,1999-03-03T20:30:00Z,28.1921,-94.1914,2.0,9.823919696,12.24961224,-99999.0,'11111222,11111222,99999999' 
TABS,ioos:station:TABS:M:1,1999-03-03T21:00:00Z,28.1921,-94.1914,2.0,20.42374938,13.66927211,-99999.0,'11111222,11111222,99999999' 
TABS,ioos:station:TABS:M:1,1999-03-03T21:30:00Z,28.1921,-94.1914,2.0,9.044204649,14.18636669,-99999.0,'11111222,11111222,99999999' 
TABS,ioos:station:TABS:M:1,1999-03-03T22:00:00Z,28.1921,-94.1914,2.0,25.95461184,12.5897776,-99999.0,'11111222,11111222,99999999' 
TABS,ioos:station:TABS:M:1,1999-03-03T22:30:00Z,28.1921,-94.1914,2.0,29.05021266,12.27413948,-99999.0,'11111222,11111222,99999999' 
TABS,ioos:station:TABS:M:1,1999-03-03T23:00:00Z,28.1921,-94.1914,2.0,36.38102398,14.06051208,-99999.0,'11111222,11111222,99999999' 
TABS,ioos:station:TABS:M:1,1999-03-03T23:30:00Z,28.1921,-94.1914,2.0,21.23756114,13.5824151,-99999.0,'11111222,11111222,99999999' 
TABS,ioos:station:TABS:M:1,1999-03-04T00:00:00Z,28.1921,-94.1914,2.0,49.22508195,15.74054637,-99999.0,'11111222,11111222,99999999' 
TABS,ioos:station:TABS:M:1,1999-03-04T00:30:00Z,28.1921,-94.1914,2.0,24.78655255,10.6622371,-99999.0,'11111222,11111222,99999999' 
TABS,ioos:station:TABS:M:1,1999-03-04T01:00:00Z,28.1921,-94.1914,2.0,36.33248928,9.806431563,-99999.0,'11133222,11111222,99999999' 
TABS,ioos:station:TABS:M:1,1999-03-04T01:30:00Z,28.1921,-94.1914,2.0,11.51053769,8.970406903,-99999.0,'11133222,11111222,99999999' 
TABS,ioos:station:TABS:M:1,1999-03-04T02:00:00Z,28.1921,-94.1914,2.0,22.54788774,8.553852933,-99999.0,'11133222,11111222,99999999' 
TABS,ioos:station:TABS:M:1,1999-03-04T02:30:00Z,28.1921,-94.1914,2.0,2.560158951,6.71670306,-99999.0,'11133222,11111222,99999999' 
TABS,ioos:station:TABS:M:1,1999-03-04T03:00:00Z,28.1921,-94.1914,2.0,9.160586518,9.359364295,-99999.0,'11133222,11111222,99999999' 
TABS,ioos:station:TABS:M:1,1999-03-04T03:30:00Z,28.1921,-94.1914,2.0,9.374419931,12.83135612,-99999.0,'11111222,11111222,99999999' 
TABS,ioos:station:TABS:M:1,1999-03-04T04:00:00Z,28.1921,-94.1914,2.0,2.994637854,11.48568239,-99999.0,'11111222,11111222,99999999' 
TABS,ioos:station:TABS:M:1,1999-03-04T04:30:00Z,28.1921,-94.1914,2.0,350.1765012,12.24961224,-99999.0,'11111222,11111222,99999999' 
TABS,ioos:station:TABS:M:1,1999-03-04T05:00:00Z,28.1921,-94.1914,2.0,356.1165336,13.14017504,-99999.0,'11111222,11111222,99999999' 
TABS,ioos:station:TABS:M:1,1999-03-04T05:30:00Z,28.1921,-94.1914,2.0,356.7322482,12.98110935,-99999.0,'11111222,11111222,99999999' 
TABS,ioos:station:TABS:M:1,1999-03-04T06:00:00Z,28.1921,-94.1914,2.0,348.575942,12.77306933,-99999.0,'11111222,11111222,99999999' 
TABS,ioos:station:TABS:M:1,1999-03-04T06:30:00Z,28.1921,-94.1914,2.0,344.1363891,12.54790022,-99999.0,'11111222,11111222,99999999' 
TABS,ioos:station:TABS:M:1,1999-03-04T07:00:00Z,28.1921,-94.1914,2.0,340.4914999,12.4868651,-99999.0,'11111222,11111222,99999999' 
TABS,ioos:station:TABS:M:1,1999-03-04T07:30:00Z,28.1921,-94.1914,2.0,341.3774508,14.46749806,-99999.0,'11111222,11111222,99999999' 
TABS,ioos:station:TABS:M:1,1999-03-04T08:00:00Z,28.1921,-94.1914,2.0,339.4617707,11.45832885,-99999.0,'11111222,11111222,99999999' 
TABS,ioos:station:TABS:M:1,1999-03-04T08:30:00Z,28.1921,-94.1914,2.0,332.3210219,13.79914852,-99999.0,'11111222,11111222,99999999' 
TABS,ioos:station:TABS:M:1,1999-03-04T09:00:00Z,28.1921,-94.1914,2.0,319.8055898,11.31103886,-99999.0,'11111222,11111222,99999999' 
TABS,ioos:station:TABS:M:1,1999-03-04T09:30:00Z,28.1921,-94.1914,2.0,315.0003157,13.49159739,-99999.0,'11111222,11111222,99999999' 
TABS,ioos:station:TABS:M:1,1999-03-04T10:00:00Z,28.1921,-94.1914,2.0,326.1404214,13.10207617,-99999.0,'11111222,11111222,99999999' 
TABS,ioos:station:TABS:M:1,1999-03-04T10:30:00Z,28.1921,-94.1914,2.0,308.1042476,9.658240005,-99999.0,'11133222,11111222,99999999' 
TABS,ioos:station:TABS:M:1,1999-03-04T11:00:00Z,28.1921,-94.1914,2.0,315.712321,8.535437892,-99999.0,'11133222,11111222,99999999' 
TABS,ioos:station:TABS:M:1,1999-03-04T11:30:00Z,28.1921,-94.1914,2.0,306.8907353,11.17800072,-99999.0,'11111222,11111222,99999999' 
TABS,ioos:station:TABS:M:1,1999-03-04T12:00:00Z,28.1921,-94.1914,2.0,291.5942375,7.689694402,-99999.0,'11133222,11111222,99999999' 
TABS,ioos:station:TABS:M:1,1999-03-04T12:30:00Z,28.1921,-94.1914,2.0,286.4708108,8.394456504,-99999.0,'11133222,11111222,99999999' 
TABS,ioos:station:TABS:M:1,1999-03-04T13:00:00Z,28.1921,-94.1914,2.0,288.7393947,8.342205943,-99999.0,'11133222,11111222,99999999' 
TABS,ioos:station:TABS:M:1,1999-03-04T13:30:00Z,28.1921,-94.1914,2.0,139.4439905,1.368831619,-99999.0,'11133222,11111222,99999999' 
TABS,ioos:station:TABS:M:1,1999-03-04T14:00:00Z,28.1921,-94.1914,2.0,281.5255074,15.66586736,-99999.0,'11111222,11111222,99999999' 
TABS,ioos:station:TABS:M:1,1999-03-04T14:30:00Z,28.1921,-94.1914,2.0,272.8819979,11.93509112,-99999.0,'11111222,11111222,99999999' 
TABS,ioos:station:TABS:M:1,1999-03-04T15:00:00Z,28.1921,-94.1914,2.0,256.0387078,3.688970046,-99999.0,'11133222,11111222,99999999' 
TABS,ioos:station:TABS:M:1,1999-03-04T15:30:00Z,28.1921,-94.1914,2.0,259.3726965,9.706477219,-99999.0,'11133222,11111222,99999999' 
TABS,ioos:station:TABS:M:1,1999-03-04T16:00:00Z,28.1921,-94.1914,2.0,264.2263495,11.83000423,-99999.0,'11111222,11111222,99999999' 
TABS,ioos:station:TABS:M:1,1999-03-04T16:30:00Z,28.1921,-94.1914,2.0,265.0922907,13.91099206,-99999.0,'11111222,11111222,99999999' 
TABS,ioos:station:TABS:M:1,1999-03-04T17:00:00Z,28.1921,-94.1914,2.0,258.9073055,15.48936409,-99999.0,'11111222,11111222,99999999' 
TABS,ioos:station:TABS:M:1,1999-03-04T17:30:00Z,28.1921,-94.1914,2.0,276.3484144,16.18926187,-99999.0,'11111222,11111222,99999999' 
TABS,ioos:station:TABS:M:1,1999-03-04T18:00:00Z,28.1921,-94.1914,2.0,278.3300105,17.46422916,-99999.0,'11111222,11111222,99999999' 
TABS,ioos:station:TABS:M:1,1999-03-04T18:30:00Z,28.1921,-94.1914,2.0,276.7233665,17.85275889,-99999.0,'11111222,11111222,99999999' 
TABS,ioos:station:TABS:M:1,1999-03-04T19:00:00Z,28.1921,-94.1914,2.0,297.3698414,18.79376758,-99999.0,'11111222,11111222,99999999' 
TABS,ioos:station:TABS:M:1,1999-03-04T19:30:00Z,28.1921,-94.1914,2.0,288.9871135,19.70190346,-99999.0,'11111222,11111222,99999999' 
TABS,ioos:station:TABS:M:1,1999-03-04T20:00:00Z,28.1921,-94.1914,2.0,295.9653178,25.19292361,-99999.0,'11111222,11111222,99999999' 
TABS,ioos:station:TABS:M:1,1999-03-04T20:30:00Z,28.1921,-94.1914,2.0,293.0285732,19.42818571,-99999.0,'11111222,11111222,99999999' 
TABS,ioos:station:TABS:M:1,1999-03-04T21:00:00Z,28.1921,-94.1914,2.0,299.8435622,20.95942032,-99999.0,'11111222,11111222,99999999' 
TABS,ioos:station:TABS:M:1,1999-03-04T21:30:00Z,28.1921,-94.1914,2.0,297.3293066,20.12640057,-99999.0,'11111222,11111222,99999999' 
TABS,ioos:station:TABS:M:1,1999-03-04T22:00:00Z,28.1921,-94.1914,2.0,299.9015286,21.8252331,-99999.0,'11111222,11111222,99999999' 
TABS,ioos:station:TABS:M:1,1999-03-04T22:30:00Z,28.1921,-94.1914,2.0,299.3740528,17.61454229,-99999.0,'11111222,11111222,99999999' 
TABS,ioos:station:TABS:M:1,1999-03-04T23:00:00Z,28.1921,-94.1914,2.0,303.087954,15.8264715,-99999.0,'11111222,11111222,99999999' 
TABS,ioos:station:TABS:M:1,1999-03-04T23:30:00Z,28.1921,-94.1914,2.0,293.6615979,9.269223268,-99999.0,'11133222,11111222,99999999' 
TABS,ioos:station:TABS:M:1,1999-03-05T00:00:00Z,28.1921,-94.1914,2.0,321.5894222,6.470340022,-99999.0,'11133222,11111222,99999999' 
TABS,ioos:station:TABS:M:1,1999-03-05T00:30:00Z,28.1921,-94.1914,2.0,303.2956248,12.47827712,-99999.0,'11111222,11111222,99999999' 
TABS,ioos:station:TABS:M:1,1999-03-05T01:00:00Z,28.1921,-94.1914,2.0,307.7333783,11.68332573,-99999.0,'11111222,11111222,99999999' 
TABS,ioos:station:TABS:M:1,1999-03-05T01:30:00Z,28.1921,-94.1914,2.0,296.56541,12.65614475,-99999.0,'11111222,11111222,99999999' 
TABS,ioos:station:TABS:M:1,1999-03-05T02:00:00Z,28.1921,-94.1914,2.0,283.3109915,8.426363391,-99999.0,'11133222,11111222,99999999' 
TABS,ioos:station:TABS:M:1,1999-03-05T02:30:00Z,28.1921,-94.1914,2.0,276.414446,11.99508233,-99999.0,'11111222,11111222,99999999' 
TABS,ioos:station:TABS:M:1,1999-03-05T03:00:00Z,28.1921,-94.1914,2.0,267.1654747,9.101131798,-99999.0,'11133222,11111222,99999999' 
TABS,ioos:station:TABS:M:1,1999-03-05T03:30:00Z,28.1921,-94.1914,2.0,286.0576345,9.146857384,-99999.0,'11133222,11111222,99999999' 
TABS,ioos:station:TABS:M:1,1999-03-05T04:00:00Z,28.1921,-94.1914,2.0,298.0834905,12.66058845,-99999.0,'11111222,11111222,99999999' 
TABS,ioos:station:TABS:M:1,1999-03-05T04:30:00Z,28.1921,-94.1914,2.0,296.8678729,11.86026981,-99999.0,'11111222,11111222,99999999' 
TABS,ioos:station:TABS:M:1,1999-03-05T05:00:00Z,28.1921,-94.1914,2.0,308.2483293,13.47189667,-99999.0,'11111222,11111222,99999999' 
TABS,ioos:station:TABS:M:1,1999-03-05T05:30:00Z,28.1921,-94.1914,2.0,322.5524619,17.64689774,-99999.0,'11111222,11111222,99999999' 
TABS,ioos:station:TABS:M:1,1999-03-05T06:00:00Z,28.1921,-94.1914,2.0,331.4806654,15.60341629,-99999.0,'11111222,11111222,99999999' 
TABS,ioos:station:TABS:M:1,1999-03-05T06:30:00Z,28.1921,-94.1914,2.0,344.6990822,16.37029322,-99999.0,'11111222,11111222,99999999' 
TABS,ioos:station:TABS:M:1,1999-03-05T07:00:00Z,28.1921,-94.1914,2.0,337.2912874,15.82694222,-99999.0,'11111222,11111222,99999999' 
TABS,ioos:station:TABS:M:1,1999-03-05T07:30:00Z,28.1921,-94.1914,2.0,341.4162271,18.23059242,-99999.0,'11111222,11111222,99999999' 
TABS,ioos:station:TABS:M:1,1999-03-05T08:00:00Z,28.1921,-94.1914,2.0,347.2839835,15.58219818,-99999.0,'11111222,11111222,99999999' 
TABS,ioos:station:TABS:M:1,1999-03-05T08:30:00Z,28.1921,-94.1914,2.0,340.0296273,15.69369619,-99999.0,'11111222,11111222,99999999' 
TABS,ioos:station:TABS:M:1,1999-03-05T09:00:00Z,28.1921,-94.1914,2.0,344.5584298,14.53468266,-99999.0,'11111222,11111222,99999999' 
TABS,ioos:station:TABS:M:1,1999-03-05T09:30:00Z,28.1921,-94.1914,2.0,348.7880308,16.09723579,-99999.0,'11111222,11111222,99999999' 
TABS,ioos:station:TABS:M:1,1999-03-05T10:00:00Z,28.1921,-94.1914,2.0,351.1366844,14.47283317,-99999.0,'11111222,11111222,99999999' 
TABS,ioos:station:TABS:M:1,1999-03-05T10:30:00Z,28.1921,-94.1914,2.0,351.768465,13.54960147,-99999.0,'11111222,11111222,99999999' 
TABS,ioos:station:TABS:M:1,1999-03-05T11:00:00Z,28.1921,-94.1914,2.0,358.70415,13.26339323,-99999.0,'11111222,11111222,99999999' 
TABS,ioos:station:TABS:M:1,1999-03-05T11:30:00Z,28.1921,-94.1914,2.0,355.9992803,10.60584744,-99999.0,'11111222,11111222,99999999' 
TABS,ioos:station:TABS:M:1,1999-03-05T12:00:00Z,28.1921,-94.1914,2.0,353.6717552,10.79578622,-99999.0,'11111222,11111222,99999999' 
TABS,ioos:station:TABS:M:1,1999-03-05T12:30:00Z,28.1921,-94.1914,2.0,357.2868074,12.67421003,-99999.0,'11111222,11111222,99999999' 
TABS,ioos:station:TABS:M:1,1999-03-05T13:00:00Z,28.1921,-94.1914,2.0,16.76593018,8.250721181,-99999.0,'11133222,11111222,99999999' 
TABS,ioos:station:TABS:M:1,1999-03-05T13:30:00Z,28.1921,-94.1914,2.0,27.30309711,4.861614958,-99999.0,'11133222,11111222,99999999' 
TABS,ioos:station:TABS:M:1,1999-03-05T14:00:00Z,28.1921,-94.1914,2.0,71.53551471,6.125332644,-99999.0,'11133222,11111222,99999999' 
TABS,ioos:station:TABS:M:1,1999-03-05T14:30:00Z,28.1921,-94.1914,2.0,36.87002189,0.75,-99999.0,'11133222,11111222,99999999' 
TABS,ioos:station:TABS:M:1,1999-03-05T15:00:00Z,28.1921,-94.1914,2.0,12.76682428,8.100253082,-99999.0,'11133222,11111222,99999999' 
TABS,ioos:station:TABS:M:1,1999-03-05T15:30:00Z,28.1921,-94.1914,2.0,328.2093062,3.682458418,-99999.0,'11133222,11111222,99999999' 
TABS,ioos:station:TABS:M:1,1999-03-05T16:00:00Z,28.1921,-94.1914,2.0,358.278415,9.984508,-99999.0,'11133222,11111222,99999999' 
TABS,ioos:station:TABS:M:1,1999-03-05T16:30:00Z,28.1921,-94.1914,2.0,8.493345133,6.026084965,-99999.0,'11133222,11111222,99999999' 
TABS,ioos:station:TABS:M:1,1999-03-05T17:00:00Z,28.1921,-94.1914,2.0,140.9643679,0.952680429,-99999.0,'11133222,11111222,99999999' 
TABS,ioos:station:TABS:M:1,1999-03-05T17:30:00Z,28.1921,-94.1914,2.0,0.000210459,10.13,-99999.0,'11111222,11111222,99999999' 
TABS,ioos:station:TABS:M:1,1999-03-05T18:00:00Z,28.1921,-94.1914,2.0,0.000210459,8.49,-99999.0,'11133222,11111222,99999999' 